User: anonymous   Login
Location: Lecco
(45.8566°N, 9.3977°E)
Time: 20:11:38
(UTC+02:00)
Language:

SR - Orbit

View from above orbital plane
View from above orbital plane
View from above satellite
View from above satellite

Ground track
Ground track

The orbit data is extracted from the following two-line orbital elements,

1    46U 60007B   19196.17568355 -.00000045  00000-0  14310-4 0  9992
2    46  66.6893 240.5383 0207389  21.3204 339.6386 14.49233073 90087
Epoch (UTC): 15 July 2019 04:12:59
Eccentricity: 0.0207389
inclination: 66.6893°
perigee height: 581 km
apogee height: 875 km
right ascension of ascending node: 240.5383°
argument of perigee: 21.3204°
revolutions per day: 14.49233073
mean anomaly at epoch: 339.6386°
orbit number at epoch: 9008

The dashed part of the orbit path shows where the satellite is in the earth's shadow,  

DLR